[[{"header":{"parameterUnit":"m.s-1","parameterCategory":1,"la1":30.2991,"la2":30.254,"lo1":-89.0895,"lo2":-89.0444,"dy":0.0017,"dx":0.0017,"nx":28,"ny":28,"refTime":"2025-04-26T21:00:00:Z","depth":0,"parameterNumber":2,"parameterNumberName":"U-component_of_WINDS"},"data":[0,0,0,0,0,0,0,0,0,0,0,0,0,0,0,0,0,0,0,0,0,0,0,0,0,0,0,0,0,0,0,0,0,0,0,0,0,0,0,0,0,0,0,0,0,0,0,0,0,0,0,0,0,0,0,0,0,0,1.3656,1.3656,0,1.3671,1.3671,1.3671,1.3634,1.3633,1.3632,1.3631,1.3646,1.3648,1.3649,0,0,0,0,0,0,0,0,0,0,0,0,0,1.3596,1.3597,1.3656,1.3656,1.3656,1.3671,1.3671,1.3671,1.3635,1.3633,1.3632,1.363,1.3646,1.3647,1.3649,0,0,0,0,0,0,0,0,0,0,0,0,0,1.3617,1.3597,1.3656,1.364,1.3639,1.3671,1.3671,1.3671,1.3635,1.3633,1.3631,1.363,1.3645,1.3647,1.3649,1.3698,0,0,1.3656,1.3657,0,0,0,0,0,0,0,0,1.3616,1.362,1.3642,1.3641,1.364,1.3649,1.3655,1.368,1.3635,1.3636,1.3631,1.3629,1.3648,1.365,1.3657,1.3698,1.3699,1.3656,1.3658,1.3659,1.3659,0,0,0,0,0,0,0,1.3615,1.3619,1.3662,1.3642,1.3641,1.3632,1.3633,1.366,1.3652,1.3636,1.3633,1.3636,1.3647,1.3655,1.3657,1.3699,1.3656,1.3658,1.366,1.366,1.3779,1.3781,0,0,0,0,0,0,1.3615,1.3618,1.3661,1.3662,1.3623,1.3634,1.3635,1.3648,1.3652,1.365,1.3637,1.3634,1.3652,1.3654,1.3657,1.3712,1.3659,1.3661,1.3662,1.3778,1.378,1.3782,0,0,0,0,0,0,1.3614,1.362,1.3661,1.3639,1.3644,1.3637,1.3651,1.3649,1.3656,1.3652,1.3651,1.3646,1.3651,1.3654,1.3687,1.3713,1.3662,1.3664,1.3775,1.3778,1.3781,1.3824,0,0,0,0,0,0,1.3613,1.3619,1.3638,1.364,1.3645,1.3691,1.3653,1.365,1.366,1.3656,1.366,1.3659,1.3649,1.3684,1.369,1.3715,1.3665,1.3773,1.3777,1.378,1.3821,1.3828,1.3835,0,0,0,0,0,1.3611,1.365,1.3639,1.3645,1.3668,1.3693,1.3696,1.3683,1.3662,1.368,1.3678,1.3659,1.3709,1.3688,1.3694,1.372,1.3772,1.3776,1.378,1.3818,1.3827,1.3835,0,0,0,0,0,0,1.3652,1.365,1.3638,1.3679,1.3686,1.3686,1.3709,1.3694,1.3707,1.3703,1.3687,1.3689,1.3724,1.3726,1.3702,1.3766,1.3737,1.3742,1.3764,1.3772,1.3779,1.3778,1.3667,0,0,0,0,0,1.3665,1.3686,1.3683,1.372,1.3724,1.3716,1.3726,1.3716,1.3723,1.3726,1.3726,1.3733,1.375,1.3761,1.3777,1.3821,1.3821,1.3842,1.3849,1.3855,1.3859,1.3881,1.389,1.3795,1.3795,1.3795,0,0,1.3694,1.3696,1.371,1.3728,1.3732,1.3753,1.3719,1.3743,1.3757,1.3729,1.376,1.3761,1.3767,1.3806,1.3823,1.3808,1.3885,1.386,1.3865,1.3866,1.3886,1.3895,1.3903,1.3798,1.3798,1.3797,0,0,1.3757,1.3761,1.3791,1.3796,1.3802,1.3797,1.3804,1.3806,1.3805,1.3836,1.3815,1.3832,1.3863,1.3868,1.3874,1.3938,1.3921,1.3944,1.398,1.4001,1.4009,1.4015,1.4036,1.4044,1.3948,1.3949,1.3949,0,1.3792,1.3822,1.3808,1.3833,1.3841,1.3816,1.3846,1.3852,1.3863,1.3869,1.3853,1.3889,1.3892,1.393,1.3946,1.3953,1.396,1.3942,1.4009,1.4015,1.4021,1.4041,1.4049,1.3951,1.3951,1.3951,1.395,0,1.3863,1.3885,1.3908,1.3919,1.393,1.3957,1.3947,1.396,1.3949,1.3945,1.3976,1.3979,1.3994,1.4003,1.3993,1.4039,1.4029,1.4011,1.3981,1.4033,1.4051,1.4058,1.3955,1.3954,1.3953,1.3952,0,0,1.3952,1.3954,1.3963,1.3967,1.3972,1.3988,1.4014,1.4028,1.4038,1.4047,1.4068,1.4093,1.4076,1.4084,1.4074,1.4093,1.4141,1.4072,1.4072,1.4083,1.419,1.4203,1.4212,1.413,1.4131,1.4132,1.4189,0,1.4012,1.4055,1.4043,1.4087,1.4105,1.4082,1.4104,1.4109,1.4106,1.4121,1.4118,1.4136,1.4112,1.4116,1.4134,1.4131,1.4162,1.4127,1.4147,1.4148,1.4145,1.4221,1.4235,1.4288,1.4196,1.4197,1.4198,0,1.4088,1.4098,1.4143,1.4144,1.4151,1.4171,1.4182,1.4198,1.4203,1.4199,1.4207,1.4193,1.4218,1.4189,1.4222,1.4199,1.4206,1.4206,1.4208,1.4208,1.4175,1.4222,1.4305,1.4312,1.421,1.4209,1.4208,0,1.4145,1.4171,1.4201,1.4205,1.4207,1.4221,1.4223,1.4227,1.4235,1.4246,1.4251,1.4264,1.4271,1.4281,1.4271,1.4251,1.4305,1.4276,1.4302,1.4302,1.4313,1.4312,1.4397,1.4321,1.4321,1.4321,1.4321,0,1.4212,1.424,1.4226,1.4244,1.4274,1.4261,1.4291,1.429,1.4293,1.431,1.4292,1.4308,1.4294,1.4309,1.4302,1.4329,1.4333,1.433,1.4327,1.433,1.4331,1.4334,1.4329,1.4323,1.4322,1.4322,1.4322,0,1.4281,1.4273,1.4303,1.4303,1.4303,1.4325,1.4324,1.434,1.4336,1.4358,1.4362,1.4355,1.4371,1.4362,1.438,1.4375,1.441,1.4403,1.4408,1.4405,1.4431,1.4428,1.4519,1.453,1.4449,1.445,1.4451,0,1.4324,1.4345,1.4345,1.4355,1.4358,1.4374,1.4383,1.437,1.438,1.4387,1.4402,1.4417,1.4428,1.4456,1.4452,1.4465,1.4457,1.4488,1.4459,1.4461,1.4455,1.4453,1.4454,1.4493,1.4494,1.4495,1.4496,0,1.44,1.4394,1.4407,1.4419,1.4429,1.4438,1.4445,1.4454,1.4441,1.4453,1.4469,1.4478,1.4495,1.451,1.4521,1.4522,1.4507,1.4505,1.4512,1.4514,1.4515,1.4513,1.4422,1.4503,1.4502,1.4502,1.4501,1.4501,1.4455,1.4472,1.4475,1.4489,1.4493,1.45,1.4515,1.4511,1.4525,1.4537,1.4529,1.4548,1.4552,1.4565,1.4568,1.4582,1.457,1.458,1.4582,1.4584,1.4586,1.4515,1.4585,1.4584,1.4584,1.4584,1.4584,0,1.4529,1.4529,1.4543,1.4552,1.4564,1.4548,1.4555,1.4565,1.4582,1.4587,1.4598,1.4616,1.463,1.4627,1.4639,1.4651,1.4644,1.4655,1.4653,1.4653,1.4598,1.459,1.466,1.466,1.466,1.466,1.466,1.466,1.4568,1.4595,1.4589,1.4617,1.4618,1.4635,1.464,1.4646,1.4649,1.467,1.4681,1.4679,1.4681,1.4693,1.4704,1.4703,1.4708,1.4721,1.4717,1.4665,1.4657,1.465,1.4642,1.4722,1.4722,1.477,1.4771,1.4771]},{"header":{"parameterUnit":"m.s-1","parameterCategory":1,"la1":30.2991,"la2":30.254,"lo1":-89.0895,"lo2":-89.0444,"dy":0.0017,"dx":0.0017,"nx":28,"ny":28,"refTime":"2025-04-26T21:00:00:Z","depth":0,"parameterNumber":3,"parameterNumberName":"V-component_of_WINDS"},"data":[0,0,0,0,0,0,0,0,0,0,0,0,0,0,0,0,0,0,0,0,0,0,0,0,0,0,0,0,0,0,0,0,0,0,0,0,0,0,0,0,0,0,0,0,0,0,0,0,0,0,0,0,0,0,0,0,0,0,-0.0459,-0.0458,0,-0.039,-0.0389,-0.0388,-0.0371,-0.0371,-0.0372,-0.0372,-0.0301,-0.0298,-0.0296,0,0,0,0,0,0,0,0,0,0,0,0,0,-0.0576,-0.0574,-0.0459,-0.0458,-0.0457,-0.039,-0.0389,-0.0388,-0.0371,-0.0371,-0.0372,-0.0373,-0.0302,-0.0299,-0.0296,0,0,0,0,0,0,0,0,0,0,0,0,0,-0.0518,-0.0573,-0.0459,-0.0441,-0.0438,-0.039,-0.0389,-0.0387,-0.0371,-0.0372,-0.0372,-0.0373,-0.0302,-0.0299,-0.0296,-0.026,0,0,-0.0285,-0.0283,0,0,0,0,0,0,0,0,-0.0521,-0.0514,-0.0444,-0.0442,-0.0439,-0.039,-0.0404,-0.0345,-0.0371,-0.0396,-0.0372,-0.0373,-0.033,-0.0324,-0.031,-0.0257,-0.0254,-0.0285,-0.0282,-0.0281,-0.028,0,0,0,0,0,0,0,-0.0525,-0.0516,-0.0431,-0.0443,-0.044,-0.0436,-0.0428,-0.0393,-0.036,-0.0394,-0.0393,-0.0385,-0.0328,-0.0313,-0.0308,-0.0253,-0.0285,-0.0282,-0.0279,-0.0278,-0.0168,-0.0167,0,0,0,0,0,0,-0.0533,-0.052,-0.0434,-0.0429,-0.0483,-0.0433,-0.0425,-0.0405,-0.036,-0.0354,-0.0384,-0.0384,-0.0319,-0.0312,-0.0305,-0.0261,-0.0281,-0.0278,-0.0276,-0.0169,-0.0168,-0.0167,0,0,0,0,0,0,-0.0535,-0.0525,-0.0436,-0.0474,-0.0463,-0.043,-0.0408,-0.0403,-0.0388,-0.0353,-0.0347,-0.0374,-0.0319,-0.031,-0.0272,-0.0258,-0.0276,-0.0273,-0.017,-0.0169,-0.0167,-0.0172,0,0,0,0,0,0,-0.0539,-0.0526,-0.0512,-0.0474,-0.0461,-0.0404,-0.0407,-0.0401,-0.0382,-0.0381,-0.0342,-0.0336,-0.0319,-0.0277,-0.0268,-0.0254,-0.027,-0.0171,-0.0169,-0.0168,-0.0173,-0.0171,-0.017,0,0,0,0,0,-0.0543,-0.0516,-0.0512,-0.0501,-0.0443,-0.0403,-0.0396,-0.0376,-0.0381,-0.0366,-0.0344,-0.0338,-0.0261,-0.0273,-0.0263,-0.0247,-0.0172,-0.017,-0.0168,-0.0174,-0.0172,-0.017,0,0,0,0,0,0,-0.0553,-0.0511,-0.0505,-0.0466,-0.0438,-0.0401,-0.0382,-0.0374,-0.0345,-0.0346,-0.0322,-0.0314,-0.0277,-0.0258,-0.0272,-0.0211,-0.0217,-0.0213,-0.0224,-0.0222,-0.022,-0.0226,-0.0267,0,0,0,0,0,-0.0551,-0.0523,-0.0487,-0.0456,-0.0442,-0.0415,-0.0397,-0.0384,-0.0355,-0.0343,-0.0318,-0.029,-0.0259,-0.024,-0.021,-0.0171,-0.0162,-0.0155,-0.0153,-0.0152,-0.0149,-0.0127,-0.0123,-0.0161,-0.0161,-0.0161,0,0,-0.0546,-0.052,-0.0503,-0.0457,-0.0435,-0.0406,-0.0405,-0.0374,-0.0353,-0.0338,-0.0301,-0.0281,-0.0248,-0.0209,-0.0191,-0.0193,-0.0136,-0.015,-0.0149,-0.0146,-0.0124,-0.0121,-0.0118,-0.016,-0.016,-0.016,0,0,-0.0522,-0.0499,-0.0471,-0.0448,-0.0414,-0.0396,-0.0389,-0.0352,-0.0339,-0.0301,-0.029,-0.0264,-0.0212,-0.0189,-0.017,-0.0138,-0.0131,-0.0129,-0.012,-0.0099,-0.0096,-0.0093,-0.0082,-0.0078,-0.0126,-0.0126,-0.0126,0,-0.052,-0.0477,-0.0457,-0.0427,-0.0407,-0.0393,-0.0364,-0.0343,-0.03,-0.0287,-0.029,-0.0224,-0.0201,-0.0157,-0.0149,-0.0134,-0.0126,-0.0133,-0.0098,-0.0095,-0.0092,-0.0081,-0.0077,-0.0126,-0.0126,-0.0126,-0.0126,0,-0.0476,-0.0446,-0.0426,-0.0386,-0.0364,-0.0335,-0.0311,-0.0291,-0.028,-0.0262,-0.0223,-0.0195,-0.0159,-0.0148,-0.0137,-0.0102,-0.0104,-0.0103,-0.0107,-0.0089,-0.0078,-0.0073,-0.0126,-0.0126,-0.0126,-0.0126,0,0,-0.0456,-0.0406,-0.0399,-0.0381,-0.0342,-0.0319,-0.0289,-0.0254,-0.0237,-0.0209,-0.0183,-0.014,-0.0138,-0.0117,-0.0104,-0.0085,-0.0062,-0.0086,-0.0085,-0.0082,-0.0021,-0.0022,-0.0017,-0.0057,-0.0056,-0.0055,-0.0024,0,-0.0427,-0.0373,-0.0355,-0.031,-0.0282,-0.0269,-0.0242,-0.0216,-0.0198,-0.0172,-0.0152,-0.0121,-0.0122,-0.0109,-0.009,-0.0069,-0.0049,-0.0071,-0.0032,-0.0031,-0.0041,-0.0012,-0.0013,0.0016,-0.0019,-0.0019,-0.0018,0,-0.0386,-0.0358,-0.031,-0.0276,-0.0263,-0.024,-0.0207,-0.0182,-0.0151,-0.014,-0.0116,-0.0105,-0.0073,-0.008,-0.0035,-0.0051,-0.0034,-0.0021,-0.0019,-0.0015,-0.0023,-0.0006,0.0025,0.0029,-0.0011,-0.0012,-0.0012,0,-0.0377,-0.0326,-0.0291,-0.0276,-0.0235,-0.0219,-0.0201,-0.0171,-0.0152,-0.0123,-0.011,-0.0077,-0.006,-0.0035,-0.0014,-0.0022,0.0028,0.0023,0.0039,0.0038,0.0049,0.0048,0.0084,0.0059,0.0059,0.0059,0.0059,0,-0.0347,-0.0318,-0.0287,-0.0265,-0.0233,-0.0212,-0.018,-0.0161,-0.0135,-0.011,-0.0096,-0.0073,-0.0047,-0.002,-0.0004,0.003,0.0038,0.0048,0.0052,0.0047,0.0046,0.0059,0.0058,0.006,0.006,0.006,0.006,0,-0.033,-0.0308,-0.0269,-0.0233,-0.0224,-0.0201,-0.0171,-0.0149,-0.0131,-0.0099,-0.009,-0.0062,-0.0029,-0.0007,0.0035,0.0046,0.0083,0.0087,0.0073,0.0075,0.009,0.0088,0.0135,0.0142,0.0113,0.0113,0.0113,0,-0.0312,-0.029,-0.0252,-0.0234,-0.0216,-0.0188,-0.0168,-0.0146,-0.0126,-0.009,-0.0073,-0.004,-0.0012,0.0039,0.0064,0.0096,0.01,0.0115,0.0105,0.01,0.0101,0.0099,0.0102,0.0116,0.0116,0.0116,0.0117,0,-0.0283,-0.0273,-0.0245,-0.0213,-0.0189,-0.0163,-0.0137,-0.0123,-0.0097,-0.0075,-0.0042,-0.002,0.0022,0.0055,0.0089,0.0108,0.0117,0.0119,0.0125,0.012,0.0111,0.0116,0.0077,0.0118,0.0118,0.0118,0.0118,0.0118,-0.0265,-0.0244,-0.0215,-0.0184,-0.0162,-0.0137,-0.0116,-0.0095,-0.0067,-0.0031,-0.002,0.0015,0.0044,0.0091,0.011,0.0137,0.0136,0.0144,0.0146,0.0148,0.0148,0.0106,0.0144,0.0144,0.0144,0.0144,0.0144,0,-0.0234,-0.0215,-0.0187,-0.015,-0.0126,-0.012,-0.0091,-0.0071,-0.0041,-0.0014,0.0013,0.0051,0.0083,0.011,0.0143,0.0159,0.0164,0.0167,0.0167,0.0171,0.0147,0.0139,0.0163,0.0163,0.0163,0.0163,0.0163,0.0163,-0.0216,-0.0181,-0.0168,-0.0122,-0.0102,-0.0069,-0.0052,-0.003,-0.0008,0.0033,0.006,0.0077,0.0104,0.0139,0.0168,0.0175,0.0187,0.0189,0.0197,0.0175,0.0172,0.017,0.0163,0.0192,0.0192,0.0219,0.0219,0.0219]}]]